Find Starlink 5275

NORAD ID: 55398 Int'l Des: 2023-014 Owner: SPXS Country: US Constellation: starlink operational
LEOCIRCULAR

Live-Position

3D-Globus wird geladen...

Über Starlink 5275

Beschreibung wird geladen...

Nächste Überflüge

Passes for default location (London). Set your location on the main map for personalized predictions.

Höhenverlauf

Loading altitude history...

Zweizeiliger Elementsatz

1 55398U 23014H 26121.21175380 .00000518 00000-0 51221-4 0 9998
2 55398 69.9984 291.9895 0002693 274.9175 85.1676 14.98341075179928
Epoch: 1. Mai 2026 • Age: 11 hours

Aktueller Status

Höhe 589.6 km
Geschwindigkeit 7.57 km/s
Subsatellitenpunkt -50.61°S, 41.32°E
Startdatum 31. Jan. 2023
Alter 3.2 years
Typ internet

Technische Details

Klassifizierung Payload
Masse 305.00 kg
Trockenmasse 290.00 kg
Gesamtmasse 305.00 kg
Länge 0.20 m
Durchmesser 2.80 m
Spannweite 9.00 m
Form Box + pan
Hersteller SPXS
Bus-Typ Starlink
Phasenstatus In Orbit
Besitzer/Staat SPXS/US

Most Searched